Location: Bannatyne
(13.0833°N, 59.5333°W)
Time: 07:38:04
(UTC+00:00)

ISS - Pass Details

Date: 22 June 2021
Orbit: 419 x 421 km, 51.6° (Epoch: 04 August)

Event Time Altitude Azimuth Distance (km) Brightness Sun altitude
Exits shadow 07:32:48 27° 64° (ENE) 846 -1.6 -26.5°
Drops below altitude 10° 07:34:32 10° 50° (NE) 1,489 0.0 -26.1°
Sets 07:36:39 0° 44° (NE) 2,352 1.3 -25.7°
